www.pogodaiklimat.ru

Погода и климат >> Архив погоды >> Россия >> Краснодарский край >> Красная Поляна


АРХИВ ПОГОДЫ в Красной Поляне

Время (UTC), дата Ветер
(напр.,м/с)
 
Видим.   Явления Облачность Т
(С)
Тd
(С)
f
(%)
Тe
(С)
Тes
(С)
Комфортность P
(гПа)
Po
(гПа)
Тmin
(С)
Tmax
(С)
R
(мм)
R24
(мм)
S
(см)
00 16.09 СВ 2 20 км ясно +13.3 +11.0 86 +13 +13 1020.1 954.2
03 16.09 штиль 0 20 км ясно +11.7 +10.3 91 +11 +11 1018.6 952.5 +11.5
06 16.09 Ю 1 20 км ясно +17.5 +10.9 65 +19 +24 1016.4 951.7
09 16.09 Ю 1 20 км ясно +24.5 +11.5 44 +26 +40 жарко 1013.1 950.1
12 16.09 З 2 20 км 3/3 1000 м
[Cu hum Ac lent]
+24.8 +13.1 48 +27 +32 жарко 1012.1 949.2
15 16.09 СЗ 1 20 км 6/3 1000 м
[Sc diur, vesp Ac cuf Ci fib]
+20.4 +13.6 65 +24 +24 комфорт 1013.2 949.4 +25.6
18 16.09 штиль 0 20 км 10/10 1350 м
[Sc]
+18.5 +15.0 80 +19 +19 1014.7 950.4
21 16.09 штиль 0 20 км 10/8 1000 м
[Sc Ac As Cs]
+16.5 +16.5 100 +16 +16 1014.8 950.1
00 17.09 С 1 20 км 10/4 1500 м
[Sc Ac As]
+16.7 +14.3 86 +18 +18 1013.7 949.1
03 17.09 В 1 20 км гроза без осадков 10/10 600 м
[Cb calv]
+16.2 +15.9 98 +17 +17 1013.5 948.8 +15.9
06 17.09 С 1 4000 м ливневой дождь {гроза} 10/10 50 м
[Cb cap]
+15.4 +15.4 100 +16 +16 1014.4 949.5 +15.3
09 17.09 ЮЗ 1 12 км в посл. час ливневой дождь 10/10 60 м
[Cb calv]
+17.2 +17.2 100 +18 +18 1013.4 949.0
12 17.09 ЮЗ 1 4300 м ливневой дождь 10/10 30 м
[Cb cap]
+15.9 +15.9 100 +17 +17 1013.9 949.1
15 17.09 Ю 1 9000 м {ливн. осадки} 10/10 90 м
[Cb calv]
+16.1 +16.1 100 +17 +17 1014.7 949.9 +17.6 19
18 17.09 С 1 13 км {ливн. осадки} 8/8 570 м
[Sc]
+14.4 +14.4 100 +15 +15 1016.5 951.2
21 17.09 С 1 20 км 8/8 210 м
[Sc]
+13.5 +12.2 92 +14 +14 1017.7 952.1
00 18.09 СВ 1 20 км 9/9 600 м
[Sc]
+13.0 +11.4 90 +13 +13 1018.2 952.4
03 18.09 СВ 1 20 км ясно +10.5 +10.5 100 +10 +10 1019.3 952.8 +10.4
06 18.09 ЮВ 1 20 км ясно +15.3 +9.4 68 +16 +22 1018.2 952.9 +10.1
09 18.09 ЮЗ 2 20 км 1/0
[Ci sp]
+20.9 +11.3 54 +24 +35 комфорт 1016.0 952.0
12 18.09 ЮЗ 2 20 км ясно +23.4 +12.7 51 +26 +33 жарко 1014.0 950.7
15 18.09 С 2 20 км ясно +18.1 +13.2 73 +19 +19 1015.1 950.6 +23.8
18 18.09 СВ 2 20 км ясно +14.9 +11.1 78 +15 +15 1017.3 952.0
21 18.09 СВ 1 20 км ясно +12.9 +10.6 86 +13 +13 1018.4 952.5
00 19.09 СВ 2 20 км ясно +12.3 +10.0 86 +11 +11 1018.2 952.2
03 19.09 СВ 1 20 км ясно +11.5 +10.7 95 +11 +11 1019.1 952.9 +10.9
06 19.09 ЮЗ 1 18 км 3/1 1500 м
[Sc Ac cast]
+16.9 +11.2 69 +18 +22 1018.4 953.4
09 19.09 ЮЗ 1 20 км 9/9 1500 м
[Sc]
+21.1 +13.8 63 +24 +25 комфорт 1017.0 953.1
12 19.09 З 2 20 км 8/3 600 м
[Sc Ac As Cc]
+23.7 +14.4 56 +26 +29 жарко 1015.8 952.5
15 19.09 С 2 20 км 1/1 600 м
[Cu hum]
+18.0 +13.3 74 +19 +19 1017.4 952.8 +24.5
18 19.09 С 1 20 км 10/3 600 м
[Sc Ac As Ci sp]
+15.1 +11.5 79 +16 +16 1018.9 953.5
21 19.09 штиль 0 20 км 10/3 600 м
[Sc Ci sp]
+13.9 +13.9 100 +13 +13 1018.3 952.7
00 20.09 С 1 20 км 3/1 600 м
[Sc Ac As]
+12.5 +12.3 99 +12 +12 1017.9 952.0
03 20.09 штиль 0 20 км 10/0
[Ac lent]
+12.1 +12.1 100 +11 +11 1016.5 950.6 +11.9
06 20.09 ЮВ 1 20 км 8/3 1000 м
[Cu hum Ac lent Ci sp]
+17.0 +11.9 72 +18 +20 1014.1 949.4 +11.8
09 20.09 ЮЗ 2 20 км 10/1 600 м
[Cu hum Ac cast Cs]
+21.2 +13.6 62 +24 +29 комфорт 1010.2 946.7
12 20.09 ЮЗ 2 20 км 10/5 600 м
[Sc Ac trans Cs]
+21.6 +14.7 65 +25 +26 комфорт 1007.9 944.7
15 20.09 З 1 20 км 10/10 600 м
[Sc]
+18.9 +14.6 76 +21 +21 комфорт 1008.2 944.4 +22.8
18 20.09 З 1 19 км {ливн. осадки} 10/10 600 м
[Sc]
+17.5 +15.7 89 +19 +19 1010.2 946.0
21 20.09 СЗ 1 17 км слаб. ливневой дождь 10/10 600 м
[Cb cap]
+15.6 +11.6 77 +16 +16 1011.2 946.4
00 21.09 штиль 0 10 км слаб. ливневой дождь 10/10 600 м
[Cb cap]
+12.4 +12.4 100 +12 +12 1013.4 947.8
03 21.09 штиль 0 8000 м дымка {ливн. осадки} 10/10 210 м
[St]
+11.6 +11.6 100 +11 +11 1013.5 947.7 +11.6 10
06 21.09 ЮЗ 2 20 км {ливн. осадки} 6/4 600 м
[Cb calv Cc]
+13.4 +12.0 91 +13 +15 1015.3 949.8 +11.2
09 21.09 ЮЗ 2 20 км 9/4 1000 м
[Cu Sc Ac As]
+14.9 +4.0 48 +15 +18 1015.9 950.5
12 21.09 З 2 20 км 10/8 600 м
[Cb calv Ac As]
+13.2 +4.6 56 +13 +13 1018.0 952.1
15 21.09 З 1 17 км слаб. ливневой дождь 10/10 600 м
[Cb cap]
+8.3 +5.9 85 +8 +8 1021.6 954.4 +15.9 3
18 21.09 СВ 2 20 км {ливн. осадки} 9/9 1500 м
[Sc]
+7.9 +6.8 93 +6 +6 1022.5 955.2
21 21.09 С 2 20 км {ливн. осадки} 6/4 1500 м
[Sc Ac lent]
+6.7 +6.6 99 +4 +4 1023.9 956.2
00 22.09 З 1 7000 м {ливн. осадки} 6/6 30 м
[Sc]
+6.2 +6.2 100 +5 +5 1025.0 957.1
03 22.09 штиль 0 20 км 10/6 600 м
[Sc Ac As]
+5.9 +5.9 100 +5 +5 1026.4 958.3 +5.1 1
06 22.09 ЮЗ 1 20 км 10/10 1500 м
[Sc]
+8.0 +6.3 89 +7 +7 1027.0 959.4
09 22.09 ЮВ 2 20 км 6/6 1000 м
[Cu med, cong]
+13.6 +4.5 54 +13 +18 1025.4 959.1
12 22.09 ЮЗ 3 20 км 6/6 1000 м
[Cu med, cong]
+15.5 +3.0 43 +15 +17 1023.2 957.5
15 22.09 С 1 20 км 4/0
[Ac As]
+10.5 +6.5 76 +10 +10 1023.7 956.9 +15.9
18 22.09 СВ 1 20 км ясно +7.7 +5.2 84 +7 +7 1024.9 957.3
21 22.09 С 2 20 км ясно +6.2 +5.5 95 +4 +4 1024.7 956.8

 

Местоположение метеостанции Красная Поляна (Краснодарский край, Россия): широта 43.68 долгота 40.20 высота над уровнем моря 567 м.

В архиве по умолчанию представлена погода в Красной Поляне за последнюю неделю. Архивные данные за месяц целиком и за предыдущие месяцы, начиная с января 2011 года, Вы можете получить, выбрав интересующий диапазон дат из раскрывающегося списка и нажав кнопку "Ввод!".


*Определитесь, кто Вы:
робот инопланетянин человек

Внимание! Время в таблицах - всемирное. Для получения местного времени необходимо прибавить поправку, которая равна 3 ч.

Смотрите также архив погоды в соседних городах и на ближайших метеорологических станциях:

Погода в Горная Карусель 1500 (Краснодарский край, Россия) (8 км)
Погода в Горная Карусель 1000 (Краснодарский край, Россия) (8 км)
Погода на Кордоне Лаура (Краснодарский край, Россия) (8 км)
Погода в Кепше (Краснодарский край, Россия) (14 км)
Погода в Гузерипле (Адыгея, Россия) (36 км)
Погода в Сочи (Краснодарский край, Россия) (36 км)
Погода в Сочи аэропорт (Адлере) (Краснодарский край, Россия) (37 км)
Погода в Имеретинке (Краснодарский край, Россия) (37 км)
Погода в Солох Ауле (Краснодарский край, Россия) (48 км)
Погода в Кичмае (Краснодарский край, Россия) (58 км)

Пояснения к столбцам:

Ветер - указаны скорость ветра в м/с - средняя за 10 мин, порывы в срок и между сроками (в фигурных скобках) и направление, откуда дует ветер: С - северный, СВ - северо-восточный, В - восточный, ЮВ - юго-восточный, Ю - южный, ЮЗ - юго-западный, З - западный, СЗ - северо-западный.
Видимость - горизонтальная дальность видимости в метрах или километрах. При видимости от 1 до 10 км при отсутствии осадков обычно наблюдается дымка, при ухудшении видимости до 1 км и менее - туман. В сухую погоду видимость может ухудшаться дымом, пылью или мглою.
Явления - указаны атмосферные явления, наблюдавшиеся в срок или в последний час перед сроком; фигурными скобками обозначены явления, наблюдавшиеся между сроками (за 1-3 часа до срока); квадратными скобками обозначены град или гололедные отложения с указанием их диаметра в мм.
Облачность - указаны через наклонную черту общая и нижняя облачность в баллах и высота нижней границы облаков в метрах; квадратными скобками обозначены формы облаков: Ci - перистые, Cs - перисто-слоистые, Cc - перисто-кучевые, Ac - высококучевые, As - высокослоистые, Sc - слоисто-кучевые, Ns - слоисто-дождевые, Cu - кучевые, Cb - кучево-дождевые. Подробнее классификацию облаков см. в Атласе облаков (PDF).
T - Температура воздуха - температура, измеренная на высоте 2 м над землей.
Td - Температура точки росы - температура, при понижении до которой содержащийся в воздухе водяной пар достигнет насыщения.
f - Относительная влажность воздуха - влажноcть воздуха, измеренная на высоте 2 м над землей.
Te - Эффективная температура - температура, которую ощущает одетый по сезону человек в тени. Характеристика душности погоды. При расчете учитывается влияние влажности воздуха и скорости ветра на теплоощущения человека.
Tes - Эффективная температура на солнце - температура, которую ощущает человек, с поправкой на солнечный нагрев. Характеристика знойности погоды. Зависит от высоты солнца над горизонтом, облачности и скорости ветра. Ночью, в пасмурную погоду, а также при ветре 12 м/с и более поправка равна нулю.
P - Атмосферное давление - приведенное к уровню моря атмосферное давление.
Po - Атмосферное давление - измеренное на уровне метеостанции атмосферное давление.
Tmin - Минимальная температура - минимум температуры воздуха на высоте 2 м над землей.
Tmax - Максимальная температура - максимум температуры воздуха на высоте 2 м над землей.
R - Количество осадков - Количество выпавших осадков за период времени, мм. При наведении курсора мыши на число - период времени, за который выпало указанное количество осадков.
R24 - Количество осадков - Количество выпавших осадков за 24 часа, мм.
S - Снежный покров - Высота снежного покрова, см. При наведении курсора мыши на число - состояние снежного покрова и степень покрытия местности в баллах.